Regional Weather Roundup
Issued by NWS Boston, MA

Home | Current Version | Previous Version | Text Only | Print | Product List | Glossary On
Versions: 1 2 3 4 5 6 7 8 9 10 11 12 13 14 15 16 17 18 19 20 21 22 23 24 25 26 27 28 29 30 31 32 33 34 35 36 37 38 39 40 41 42 43 44 45 46 47 48 49 50
000
ASUS41 KBOX 280810
RWRBOX

REGIONAL WEATHER ROUNDUP
NATIONAL WEATHER SERVICE TAUNTON MA
400 AM EDT FRI JUL 28 2017

NOTE:  "FAIR" INDICATES FEW OR NO CLOUDS BELOW 12,000 FEET WITH NO
SIGNIFICANT WEATHER AND/OR OBSTRUCTIONS TO VISIBILITY.

MAZALL-280900-
EASTERN MASSACHUSETTS

CITY           SKY/WX    TMP DP  RH WIND       PRES   REMARKS
BOSTON         PTCLDY    67  65  93 SW10      29.82F
BEVERLY        PTCLDY    65  64  97 W5        29.81F FOG
LAWRENCE       PTCLDY    66  63  90 SW3       29.84S FOG
BEDFORD        CLEAR     63  60  90 CALM      29.82S FOG
BLUE HILL        N/A     64  63  96 W12       29.84S
NORWOOD        PTCLDY    64  64 100 CALM      29.83S FOG
MARSHFIELD     MOCLDY    68  68 100 VRB6      29.83S
PLYMOUTH       MOCLDY    68  66  93 SW5       29.84F
TAUNTON        PTCLDY    68  65  90 SW5       29.83F
NEW BEDFORD    MOCLDY    69  67  93 W6        29.83F
$$

MAZALL-280900-
CAPE COD AND THE ISLANDS

CITY           SKY/WX    TMP DP  RH WIND       PRES   REMARKS
FALMOUTH       CLOUDY    68  68 100 W7        29.85S
HYANNIS        CLOUDY    70  68  93 SW9       29.83S
CHATHAM        MOCLDY    70  69  97 W7        29.84F
PROVINCETOWN   CLEAR     63  62  97 SW8       29.83F
NANTUCKET      MOCLDY    66  66 100 SW10      29.85F
MARTHAS VNYRD  CLOUDY    71  68  90 W8        29.85S
$$

MAZALL-280900-
CENTRAL AND WESTERN MASSACHUSETTS

CITY           SKY/WX    TMP DP  RH WIND       PRES   REMARKS
WORCESTER      PTCLDY    64  62  93 W10       29.87S
FITCHBURG      CLEAR     65  63  93 NW3       29.85S
ORANGE         FOG       59  59 100 CALM      29.86S VSB 1/4
SPRINGFIELD    FOG       66  66 100 CALM      29.84S VSB 1/4
WESTFIELD      FOG       65  65 100 SW6       29.85F VSB 1/4
NORTH ADAMS    CLOUDY    62  62 100 CALM      29.87F FOG
PITTSFIELD     CLOUDY    61  60  97 CALM      29.89S
$$

RIZALL-280900-
RHODE ISLAND

CITY           SKY/WX    TMP DP  RH WIND       PRES   REMARKS
PROVIDENCE     CLOUDY    70  69  97 W5        29.85S
NEWPORT        CLOUDY    69  69 100 CALM      29.85S
BLOCK ISLAND   MOCLDY    69  68  96 SW10      29.85F
WESTERLY       PTCLDY    70  68  93 CALM      29.85F
$$

CTZALL-280900-
CONNECTICUT

CITY           SKY/WX    TMP DP  RH WIND       PRES   REMARKS
BRADLEY INTL   FOG       64  63  96 CALM      29.85F VSB 3/4
HARTFORD       PTCLDY    69  68  96 CALM      29.84F
BRIDGEPORT     MOCLDY    70  68  93 CALM      29.85S
DANBURY        CLOUDY    69  68  96 CALM      29.88S FOG
GROTON         MOCLDY    70  68  93 CALM      29.84F
NEW HAVEN      CLOUDY    67  66  97 CALM      29.85S
CHESTER        FAIR      70  68  94 CALM      29.86F FOG
MERIDEN        MOCLDY    65  64  97 CALM      29.85F
WILLIMANTIC    FOG       63  63 100 CALM      29.85F VSB 1/4
OXFORD         MOCLDY    66  63  88 CALM      29.88S
$$

MEZ002-015-021-024-NHZ003-005-008-011-012-014-VTZ005-008-280900-
NORTHERN NEW ENGLAND

CITY           SKY/WX    TMP DP  RH WIND       PRES   REMARKS
PORTLAND ME    CLEAR     62  60  93 W6        29.78F
BANGOR ME      FOG       60  59  96 CALM      29.76S VSB 1/4
CONCORD NH     CLEAR     61  59  93 CALM      29.83S FOG
MANCHESTER NH  PTCLDY    63  60  90 S5        29.81S
NASHUA NH      CLEAR     60  60 100 CALM      29.84R
PORTSMOUTH NH  MOCLDY    65  63  93 W7        29.79S
JAFFREY NH     MOCLDY    61  61 100 S6        29.88R FOG
KEENE NH       FOG       61  61 100 CALM      29.86S VSB 1/4
BURLINGTON VT  CLOUDY    66  60  81 N6        29.87S
MT. WASHINGTON FOG       46  46 100 NW47G60     N/A  VSB 0
$$

NYZ052-076-280900-
EASTERN NEW YORK

CITY           SKY/WX    TMP DP  RH WIND       PRES   REMARKS
ALBANY         PTCLDY    61  60  97 CALM      29.87S
NEW YORK CITY  PTCLDY    74  70  87 CALM      29.83F
$$

ANZALL-280900-
MARINE OBSERVATIONS

STATION/POSITION TIME  TEMP    WIND        PRES    VSBY  WAVE
                       AIR SEA DIR/SP/G                  HT/PER
                 (UTC) (F)     (DEG/KT/KT) (MB)    (MI)  (FT/S)
BOSTON BUOY      0750   65 63  240/ 10/ 10 1009.5F         2/ 8
BUZZARDS BAY     0700   67     250/  9/ 10 1011.3F
NANTUCKET SOUND  0750      70              1010.3F         1/ 3
MASS BAY-STELLWA 0704   64 62  230/  8/  8 1008.8F         2/ 8
ISLE OF SHOALS   0700   65     250/ 13/ 13 1008.9F
S OF BLOCK IS    NOT AVBL
$$

......................KEY.........................
  SKY/WX - SKY CONDITION/PRESENT WEATHER
  TMP    - TEMPERATURE IN FAHRENHEIT
  DWPT   - DEWPOINT IN FAHRENHEIT
  RH     - RELATIVE HUMIDITY IN PERCENT
  WIND   - DIRECTION AND SPEED IN MPH
  PRES   - MEAN SEA LEVEL PRESSURE IN INCHES OF HG
  WCI    - WIND CHILL INDEX
  VSB    - VISIBILITY IN MILES
  HX     - HEAT INDEX
  TC     - TEMPERATURE IN CELSIUS
  VRB    - VARIABLE WIND DIRECTION
  N/A    - NOT AVAILABLE



USA.gov is the U.S. government's official web portal to all federal, state and local government web resources and services.